User: anonymous   Login
Location: Albany
(35.0000°S, 118.0000°E)
Time: 14:14:46
(UTC-04:00)
Language:

Centaur D-1AR AC-48 - Orbit

View from above orbital plane
View from above orbital plane
View from above satellite
View from above satellite

Ground track
Ground track

The orbit data is extracted from the following two-line orbital elements,

1 10779U 78035B   14296.80222873 -.00000158  00000-0 -80407-3 0  9708
2 10779 021.6751 044.7144 7179710 137.1400 325.1610 02.22639341297143
Epoch (UTC): 23 October 2014 19:15:12
Eccentricity: 0.7179710
inclination: 21.6751°
perigee height: 609 km
apogee height: 36183 km
right ascension of ascending node: 44.7144°
argument of perigee: 137.1400°
revolutions per day: 2.22639341
mean anomaly at epoch: 325.1610°
orbit number at epoch: 29714

The dashed part of the orbit path shows where the satellite is in the earth's shadow,  

DLR